Regional Weather Roundup
Issued by NWS Sioux Falls, SD

Home | Current Version | Previous Version | Text Only | Print | Product List | Glossary On
Versions: 1 2 3 4 5 6 7 8 9 10 11 12 13 14 15 16 17 18 19 20 21 22 23 24 25 26 27 28 29 30 31 32 33 34 35 36 37 38 39 40 41 42 43 44 45 46 47 48 49 50
000
ASUS43 KFSD 260610
RWRFSD

WEATHER ROUNDUP FOR SE SOUTH DAKOTA/SW MINNESOTA/NW IOWA
NATIONAL WEATHER SERVICE SIOUX FALLS SD
100 AM CDT WED APR 26 2017

NOTE: "FAIR" INDICATES FEW OR NO CLOUDS BELOW 12,000 FEET WITH NO
SIGNIFICANT WEATHER AND OR OBSTRUCTIONS TO VISIBILITY.


SDZ038>040-050-052>070-260700-
SOUTHEAST SOUTH DAKOTA

CITY           SKY/WX    TMP DP  RH WIND       PRES   REMARKS
BROOKINGS      CLOUDY    34  32  92 N17       29.65F WCI  23
CHAMBERLAIN    CLOUDY    35  31  86 NW18      29.80S WCI  24
6HR MIN TEMP:  35; 6HR MAX TEMP:  38;

HURON          CLOUDY    32  31  96 NW14G23   29.76S FOG     WCI  22
6HR MIN TEMP:  32; 6HR MAX TEMP:  35; 6HR PCP: TRACE;

MADISON        CLOUDY    34  34 100 N15G23    29.66S WCI  24
MITCHELL       CLOUDY    34  31  88 NW20      29.76S WCI  23
6HR MIN TEMP:  34; 6HR MAX TEMP:  36; 6HR PCP: TRACE;

SIOUX FALLS    CLOUDY    37  37 100 NW17      29.64F
6HR MIN TEMP:  37; 6HR MAX TEMP:  39; 6HR PCP:  0.07;

WINNER         CLOUDY    33  29  85 NW17G24   29.82R WCI  22
YANKTON        CLOUDY   N/A N/A N/A NW22G29   29.69S
$$

MNZ071-072-080-081-089-090-097-098-260700-
SOUTHWEST MINNESOTA

CITY           SKY/WX    TMP DP  RH WIND       PRES   REMARKS
FAIRMONT       LGT RAIN  43  42  97 NW21      29.50F
JACKSON        LGT RAIN  39  39 100 NW18      29.53F
LUVERNE        CLOUDY    36  34  93 NW15      29.61F
MARSHALL       LGT RAIN  37  36  96 N20       29.61F
6HR MIN TEMP:  37; 6HR MAX TEMP:  39; 6HR PCP:  0.07;

MONTEVIDEO     DRIZZLE   39  39 100 N17       29.62F
PIPESTONE      DRIZZLE   37  32  81 N15G21    29.60F
REDWOOD FALLS  LGT RAIN  42  40  92 NW12      29.56S FOG
TRACY          LGT RAIN  38  38  99 NW18G24   29.60S
WINDOM         LGT RAIN  39  39 100 NW24      29.54S
WORTHINGTON    LGT RAIN  38  37  97 N20       29.57S
$$

IAZ001>003-012>014-020>022-031-032-NEZ013-014-SDZ071-260700-
NORTHWEST IOWA

CITY           SKY/WX    TMP DP  RH WIND       PRES   REMARKS
CHEROKEE       CLOUDY    39  39 100 N12G21    29.56F
DENISON        CLOUDY    39  39 100 NW12G22   29.58R
ESTHERVILLE    LGT RAIN  41  41 100 NW18      29.52F FOG
LE MARS        CLOUDY    39  37  93 NW14G23   29.62F
ORANGE CITY    CLOUDY    37  37 100 NW14G22   29.59F
SHELDON        CLOUDY    39  37  93 NW17G24   29.56F
SIOUX CITY     CLOUDY    38  37  97 NW23G30   29.62S
6HR MIN TEMP:  38; 6HR MAX TEMP:  42; 6HR PCP:  0.02;

SPENCER        LGT RAIN  41  39  93 N20G29    29.54F
6HR MIN TEMP:  41; 6HR MAX TEMP:  43; 6HR PCP:  0.16;

STORM LAKE     RAIN      39  39 100 NW18      29.53F
$$

ABBREVIATIONS USED IN REMARKS
   TC - TEMPERATURE IN CELSIUS
  WCI - WIND CHILL INDEX
   HX - HEAT INDEX
  VSB - VISIBILITY





USA.gov is the U.S. government's official web portal to all federal, state and local government web resources and services.